Location: Austin
(30.3000°N, 97.7500°W)
Time: 05:38:22
(UTC-06:00)

YAOGAN 1 - Pass Details

Date: 21 November 2024
Orbit: 609 x 611 km, 97.8° (Epoch: 06 December)

Event Time Altitude Azimuth Distance (km) Brightness Sun altitude
Rises 20:09:05 0° 199° (SSW) 2,857 6.3 -33.7°
Reaches altitude 10° 20:11:43 10° 216° (SW) 1,957 5.5 -34.2°
Maximum altitude 20:14:52 20° 264° (W) 1,412 5.0 -34.9°
Drops below altitude 10° 20:18:03 10° 312° (NW) 1,965 5.5 -35.6°
Sets 20:20:43 0° 329° (NNW) 2,872 6.3 -36.2°
